Regional Weather Roundup
Issued by NWS

Home | Current Version | Previous Version | Text Only | Print | Product List | Glossary Off
Versions: 1 2 3 4 5 6 7 8 9 10 11 12 13 14 15 16 17 18 19 20 21 22 23 24 25 26 27 28 29 30 31 32 33 34 35 36 37 38 39 40 41 42 43 44 45 46 47 48 49 50

000
ASUS45 KABQ 190910
RWRNM
NEW MEXICO REGIONAL WEATHER ROUNDUP
NATIONAL WEATHER SERVICE ALBUQUERQUE NM
200 AM MST SUN FEB 19 2017

NOTE: "FAIR" MEANS FEW OR NO CLOUDS BELOW 12,000 FEET AGL WITH NO
       SIGNIFICANT WEATHER OR OBSTRUCTIONS TO VISION.

      THIS PRODUCT IS RELEASED AS TWO VERSIONS.  ONE VERSION NEAR
      THE TOP OF THE HOUR CONTAINING PRELIMINARY DATA FROM ALBUQUERQUE
      AND OTHER STATIONS.  A FINAL VERSION WITH ADDITIONAL DATA IS
      ISSUED ABOUT 10 MINUTES AFTER THE HOUR.

NMZ501-503-504-510>518-191000-
NORTHWEST PLATEAU/NORTHCENTRAL MOUNTAINS

CITY           SKY/WX    TMP DP  RH WIND       PRES   REMARKS
FARMINGTON     MOCLDY    45  29  53 E10       29.74F
LOS ALAMOS     FAIR      41  24  51 W5        29.84F
SANTA FE       FAIR      36  26  67 CALM      29.80F
TAOS           FAIR      28  19  69 CALM      29.87R
ANGEL FIRE     FAIR      29  26  85 CALM      29.90R

$$
NMZ402-403-502-505>509-191000-
WESTCENTRAL MOUNTAINS/SOUTHWEST MOUNTAINS

CITY           SKY/WX    TMP DP  RH WIND       PRES   REMARKS
GALLUP         CLOUDY    38  34  85 SW8       29.80S WCI  32
GRANTS         LGT RAIN  41  32  70 S12       29.84R
SILVER CITY    FAIR      37  33  86 W6        29.85F WCI  32

$$
NMZ407-409-411-412-191000-
SOUTHERN DESERTS

CITY           SKY/WX    TMP DP  RH WIND       PRES   REMARKS
DEMING         FAIR      43  38  82 W10       29.85R
LAS CRUCES     RAIN      44  41  87 SE6       29.85F
HOLLOMAN AFB   MOCLDY    47  37  67 NE7       29.89S
ALAMOGORDO     FAIR      46  36  66 E6        29.87F
T OR C         CLOUDY    43  39  86 E5        29.81F

$$
NMZ519>523-191000-
CENTRAL VALLEYS/CENTRAL HIGHLANDS

CITY           SKY/WX    TMP DP  RH WIND       PRES   REMARKS
ALBUQUERQUE    CLOUDY    44  30  57 N7        29.80R
DOUBLE EAGLE   FAIR      34  30  85 W3        29.82R
MORIARTY ARPT  FAIR      28  25  88 NW3       29.84R
CLINES CORNERS FAIR      39  23  52 E8        29.84S WCI  33
BELEN          CLOUDY    43  33  65 SW10      29.83R
SOCORRO        CLOUDY    40  37  87 SE6       29.84R

$$
NMZ524>526-539-540-191000-
SOUTHCENTRAL MOUNTAINS

CITY           SKY/WX    TMP DP  RH WIND       PRES   REMARKS
RUIDOSO        FAIR      39  30  70 SW16G22   29.86R WCI  30

$$
NMZ527>531-191000-
NORTHEAST HIGHLANDS/NORTHEAST PLAINS

CITY           SKY/WX    TMP DP  RH WIND       PRES   REMARKS
LAS VEGAS      FAIR      33  27  78 NE5       29.84F WCI  29
RATON          FAIR      39  26  59 W6        29.83S WCI  35
CLAYTON        FAIR      45  37  73 SW14      29.81S

$$
NMZ532>537-191000-
EASTCENTRAL PLAINS

CITY           SKY/WX    TMP DP  RH WIND       PRES   REMARKS
TUCUMCARI      FAIR      50  36  58 S5        29.78S
CANNON AFB     FAIR      43  43 100 E7        29.79S
CLOVIS AIRPORT FAIR      43  36  75 E3        29.79S

$$
NMZ028-029-538-191000-
SOUTHEAST PLAINS

CITY           SKY/WX    TMP DP  RH WIND       PRES   REMARKS
ROSWELL        FAIR      44  32  62 CALM        N/A
ARTESIA        FAIR      45  36  70 SW10      29.74S
CARLSBAD       FAIR      55  34  45 W23G31    29.73S
HOBBS          FAIR      52  36  54 SE9       29.74S


$$




USA.gov is the U.S. government's official web portal to all federal, state and local government web resources and services.